sat.trackr.live / text

‹ back to catalog

ONEWEB-0616

NORAD 55157 · 2023-004T

PAYLOAD ACTIVE UNKNOWN

§ Identity

Operator
Country
UK
Launch date
2023-01-10
Launch site
AFETR
Launch vehicle
Mass (kg)
RCS (m²)

Purposes: comms

External: N2YO · Heavens-Above · Gunter

§ Orbital elements

Epoch: 2026-09-20T05:09:44.767008Z

Period
109.29 min
Inclination
87.9199°
Eccentricity
0.0002227
Mean motion
13.17650649 rev/d
Perigee alt
1,192.0 km
Apogee alt
1,195.4 km
Semi-major
7,571.8 km
B*
2.4444e-4
RAAN
346.9988°
Arg perigee
76.8543°
Mean anomaly
283.2837°
Rev number
18,021

§ Raw data

ONEWEB-06161 55157U 23004T   26263.21510147  .00000108  00000+0  24444-3 0  99912 55157  87.9199 346.9988 0002227  76.8543 283.2837 13.17650649180218

JSON: /api/v1/satellites/55157 · /tle

For live sub-satellite position, see the globe view (requires WebGL).

§ Visibility from observer

Set your observer location to see the next 7 days of passes ≥ 10°. The values pass through the URL so the page stays shareable.

No JS? Fill the form by hand. The geolocation button needs JavaScript.